Location: Guayaquil
(2.1667°S, 79.9000°W)
Time: 23:16:37
(UTC-05:00)

Envisat - Pass Details

Date: 11 August 2020
Orbit: 764 x 766 km, 98.1° (Epoch: 26 September)

Event Time Altitude Azimuth Distance (km) Brightness Sun altitude
Rises 19:03:53 0° 197° (SSW) 3,231 6.3 -10.0°
Reaches altitude 10° 19:06:53 10° 215° (SW) 2,302 5.8 -10.8°
Maximum altitude 19:10:14 18° 257° (WSW) 1,816 5.9 -11.6°
Drops below altitude 10° 19:13:34 10° 299° (WNW) 2,296 6.8 -12.4°
Sets 19:16:35 0° 318° (NW) 3,218 7.3 -13.1°
